User: anonymous   Login
Location: D�derode
(51.8092°N, 10.1065°E)
Time: 22:12:47
(UTC+00:00)
Language:

Cosmos 2366 rocket - Orbit

View from above orbital plane
View from above orbital plane
View from above satellite
View from above satellite

Ground track
Ground track

The orbit data is extracted from the following two-line orbital elements,

1 25893U 99045B   21058.40198184  .00000114  00000-0  10120-3 0  9998
2 25893  82.9235  98.6879 0027154 276.5911  94.2304 13.76537390 80559
Epoch (UTC): 27 February 2021 09:38:51
Eccentricity: 0.0027154
inclination: 82.9235°
perigee height: 956 km
apogee height: 996 km
right ascension of ascending node: 98.6879°
argument of perigee: 276.5911°
revolutions per day: 13.76537390
mean anomaly at epoch: 94.2304°
orbit number at epoch: 8055

The dashed part of the orbit path shows where the satellite is in the earth's shadow,  

DLR